Torna al catalogo

NANOSAT 1B

AttivoMilitareSSO
NORAD 35685·PAYLOAD·🇪🇸 Spain

Lanciato Jul 29, 2009 da Baikonur Cosmodrome

Loading…

Prossimi Passaggi (prossime 24 ore)

TLE

AggiornatoSource: Space-Track

Epoca: Sep 14, 2026, 03:31 UTC

1 35685U 09041E   26257.14668139  .00001542  00000-0  15009-3 0  9991
2 35685  98.1265  18.6993 0048141 230.5061 129.1896 14.93301885927692

Traccia NANOSAT 1B in tempo reale con AllMySat

Download on the App Store